Change the Weather History Date:

Thursday, November 6, 2014

  Actual Average Record
Temperature  
Mean Temperature 41 °F 46 °F  
Max Temperature 52 °F 58 °F 82 °F (1915)
Min Temperature 29 °F 35 °F 14 °F (1959)
Degree Days  
Heating Degree Days 24 19  
Month to date heating degree days 100 105  
Since 1 July heating degree days 463 524  
Cooling Degree Days 0 0  
Month to date cooling degree days 0 0  
Year to date cooling degree days 1182 1220  
Moisture  
Dew Point 31 °F    
Average Humidity 67    
Maximum Humidity 92    
Minimum Humidity 41    
Precipitation  
Precipitation 0.00 in 0.06 in 1.57 in (1920)
Month to date precipitation 0.02 0.49  
Year to date precipitation 30.73 33.02  
Sea Level Pressure  
Sea Level Pressure 30.33 in    
Wind  
Wind Speed 12 mph (NW)    
Max Wind Speed 26 mph    
Max Gust Speed 35 mph    
Visibility 10 miles    
Events Rain    
T = Trace of Precipitation, MM = Missing Value Source: NWS Daily Summary

Daily Weather History Graph

Daily Weather History Graph

Search for Another Location

Airport or City:

Trip Planner

Search our weather history database for the weather conditions in past years. The results will help you decide how hot, cold, wet, or windy it might be!

Date:

Astronomy

Nov. 06, 2014 Rise Set
Actual Time 6:54 AM CST 5:12 PM CST
Civil Twilight 6:25 AM CST 5:40 PM CST
Nautical Twilight 5:53 AM CST 6:12 PM CST
Astronomical Twilight 5:21 AM CST 6:44 PM CST
Moon 5:20 PM CST (11/6) 6:26 AM CST (11/6)
Length of Visible Light 11h 14m
Length of Day
10h 18m
Full, 100% of the Moon is Illuminated
Nov 6
Full
Nov 6
Full
Nov 14
Last Quarter
Nov 22
New
Nov 29
First Quarter

Hourly Weather History & Observations

Time (CST) Temp. Windchill Dew Point Humidity Pressure Visibility Wind Dir Wind Speed Gust Speed Precip Events Conditions
12:53 AM 48.9 °F - 36.0 °F 61% 30.15 in 10.0 mi NW 9.2 mph - N/A   Clear
1:53 AM 46.9 °F - 35.1 °F 63% 30.16 in 10.0 mi WNW 9.2 mph - N/A   Clear
2:53 AM 48.0 °F - 33.1 °F 56% 30.18 in 10.0 mi NW 16.1 mph 24.2 mph N/A   Clear
3:53 AM 46.0 °F 38.8 °F 32.0 °F 58% 30.21 in 10.0 mi NW 18.4 mph - 0.00 in   Clear
4:53 AM 43.0 °F 35.1 °F 33.1 °F 68% 30.25 in 10.0 mi NNW 17.3 mph - 0.00 in   Clear
5:53 AM 42.1 °F 33.1 °F 33.1 °F 70% 30.27 in 10.0 mi NW 20.7 mph - 0.00 in Rain Light Rain
6:53 AM 39.9 °F 30.8 °F 32.0 °F 73% 30.31 in 10.0 mi NNW 18.4 mph 28.8 mph 0.00 in   Partly Cloudy
7:53 AM 41.0 °F 31.9 °F 30.9 °F 67% 30.35 in 10.0 mi NNW 19.6 mph - N/A   Clear
8:53 AM 42.1 °F 33.1 °F 30.0 °F 62% 30.38 in 10.0 mi NNW 20.7 mph 31.1 mph N/A   Overcast
9:53 AM 44.1 °F 35.4 °F 30.9 °F 60% 30.39 in 10.0 mi North 21.9 mph 31.1 mph N/A   Mostly Cloudy
10:07 AM 44.1 °F 36.8 °F 30.9 °F 60% 30.39 in 10.0 mi North 16.1 mph 25.3 mph N/A   Mostly Cloudy
10:16 AM 45.0 °F 36.9 °F 30.9 °F 58% 30.39 in 10.0 mi North 20.7 mph 26.5 mph N/A   Mostly Cloudy
10:53 AM 46.0 °F 38.8 °F 30.0 °F 54% 30.41 in 10.0 mi North 18.4 mph 27.6 mph 0.00 in   Scattered Clouds
11:53 AM 48.9 °F - 30.0 °F 48% 30.39 in 10.0 mi NNW 23.0 mph 26.5 mph 0.00 in   Clear
12:53 PM 50.0 °F - 30.0 °F 46% 30.38 in 10.0 mi NNW 16.1 mph 23.0 mph 0.00 in   Partly Cloudy
1:53 PM 50.0 °F - 30.0 °F 46% 30.38 in 10.0 mi NW 11.5 mph 25.3 mph N/A   Clear
2:53 PM 51.1 °F - 28.9 °F 43% 30.37 in 10.0 mi NW 11.5 mph - N/A   Clear
3:53 PM 51.1 °F - 28.0 °F 41% 30.37 in 10.0 mi NNW 15.0 mph - N/A   Clear
4:53 PM 46.9 °F - 27.0 °F 46% 30.35 in 10.0 mi North 8.1 mph - N/A   Clear
5:53 PM 42.1 °F 39.2 °F 28.0 °F 58% 30.37 in 10.0 mi WNW 4.6 mph - N/A   Clear
6:53 PM 37.9 °F - 30.0 °F 73% 30.36 in 10.0 mi Calm Calm - N/A   Clear
7:53 PM 37.9 °F 35.5 °F 30.0 °F 73% 30.36 in 10.0 mi South 3.5 mph - N/A   Clear
8:53 PM 36.0 °F - 30.0 °F 79% 30.35 in 10.0 mi Calm Calm - N/A   Clear
9:53 PM 33.1 °F - 28.0 °F 82% 30.35 in 10.0 mi Calm Calm - N/A   Clear
10:53 PM 32.0 °F 27.5 °F 30.0 °F 92% 30.34 in 10.0 mi South 4.6 mph - N/A   Clear
11:53 PM 33.1 °F - 30.0 °F 89% 30.32 in 10.0 mi Calm Calm - N/A   Clear